[[{"header":{"parameterUnit":"m.s-1","parameterCategory":1,"la1":30.2991,"la2":30.254,"lo1":-89.0895,"lo2":-89.0444,"dy":0.0017,"dx":0.0017,"nx":28,"ny":28,"refTime":"2024-12-03T09:00:00:Z","depth":0,"parameterNumber":2,"parameterNumberName":"U-component_of_WINDS"},"data":[0,0,0,0,0,0,0,0,0,0,0,0,0,0,0,0,0,0,0,0,0,0,0,0,0,0,0,0,0,0,0,0,0,0,0,0,0,0,0,0,0,0,0,0,0,0,0,0,0,0,0,0,0,0,0,0,0,0,0.6688,0.6688,0,0.6672,0.6672,0.6672,0.6654,0.6654,0.6654,0.6653,0.6636,0.6636,0.6635,0,0,0,0,0,0,0,0,0,0,0,0,0,0.6703,0.6703,0.6688,0.6688,0.6688,0.6672,0.6672,0.6672,0.6654,0.6654,0.6654,0.6653,0.6636,0.6636,0.6635,0,0,0,0,0,0,0,0,0,0,0,0,0,0.6693,0.6703,0.6688,0.6677,0.6676,0.6672,0.6672,0.6672,0.6654,0.6654,0.6653,0.6653,0.6636,0.6636,0.6635,0.6641,0,0,0.6634,0.6634,0,0,0,0,0,0,0,0,0.6693,0.6692,0.6679,0.6678,0.6677,0.6665,0.6671,0.6661,0.6654,0.6662,0.6653,0.6653,0.6646,0.6644,0.6642,0.664,0.6639,0.6634,0.6634,0.6634,0.6634,0,0,0,0,0,0,0,0.6694,0.6693,0.6682,0.6679,0.6677,0.6673,0.6671,0.6669,0.6656,0.6662,0.666,0.6659,0.6645,0.6643,0.6642,0.6639,0.6634,0.6634,0.6634,0.6633,0.6641,0.6641,0,0,0,0,0,0,0.6697,0.6693,0.6682,0.6681,0.6684,0.6673,0.6671,0.6669,0.6656,0.6654,0.6659,0.6658,0.6643,0.6642,0.6641,0.6647,0.6634,0.6633,0.6633,0.664,0.6641,0.6641,0,0,0,0,0,0,0.6697,0.6696,0.6683,0.6687,0.6685,0.6673,0.6671,0.6669,0.6666,0.6654,0.6652,0.6659,0.6643,0.6641,0.6641,0.6646,0.6633,0.6633,0.664,0.6641,0.6641,0.6659,0,0,0,0,0,0,0.6697,0.6696,0.6698,0.6687,0.6685,0.6683,0.6671,0.6669,0.6666,0.6664,0.6654,0.6652,0.6643,0.6642,0.6641,0.6645,0.6633,0.6639,0.664,0.6641,0.6658,0.666,0.6662,0,0,0,0,0,0.6698,0.6703,0.6698,0.6697,0.6687,0.6684,0.6682,0.6672,0.6666,0.6668,0.6661,0.6652,0.6646,0.6642,0.6641,0.6645,0.6639,0.664,0.6641,0.6657,0.6659,0.6662,0,0,0,0,0,0,0.6714,0.6701,0.6696,0.6697,0.6692,0.6681,0.6683,0.6675,0.6671,0.667,0.6657,0.6655,0.6656,0.665,0.6646,0.665,0.6641,0.6642,0.6654,0.6656,0.6658,0.6659,0.6632,0,0,0,0,0,0.6718,0.6716,0.6705,0.6708,0.6705,0.6695,0.6693,0.6686,0.6679,0.6677,0.6669,0.6663,0.6659,0.6657,0.6654,0.6657,0.6654,0.6659,0.6662,0.6663,0.6664,0.6666,0.6668,0.6644,0.6644,0.6644,0,0,0.6725,0.6718,0.6718,0.6711,0.6706,0.6704,0.6693,0.6692,0.669,0.6676,0.6676,0.667,0.6662,0.6664,0.6664,0.6659,0.667,0.6664,0.6666,0.6666,0.6667,0.6669,0.6671,0.6645,0.6645,0.6645,0,0,0.6738,0.6733,0.6735,0.673,0.6723,0.6716,0.6716,0.6707,0.6702,0.6702,0.6691,0.669,0.6684,0.668,0.6676,0.6689,0.6681,0.6688,0.6699,0.6701,0.6703,0.6705,0.6709,0.6711,0.6689,0.6689,0.6689,0,0.6749,0.6747,0.6737,0.6736,0.6734,0.6722,0.6724,0.6719,0.6711,0.671,0.6704,0.6698,0.6692,0.6693,0.6696,0.6694,0.6694,0.6689,0.6704,0.6705,0.6706,0.6711,0.6713,0.669,0.669,0.669,0.669,0,0.676,0.6758,0.6761,0.6754,0.6751,0.6752,0.6743,0.6741,0.6735,0.6729,0.6728,0.6721,0.6716,0.6716,0.6709,0.6716,0.6713,0.6706,0.6697,0.671,0.6714,0.6715,0.6692,0.6691,0.6691,0.6691,0,0,0.6781,0.677,0.6771,0.6768,0.676,0.6758,0.6759,0.6755,0.6754,0.6749,0.6749,0.6746,0.6739,0.6736,0.6729,0.673,0.6742,0.6723,0.6723,0.6727,0.6749,0.6755,0.6757,0.6736,0.6737,0.6737,0.675,0,0.6793,0.6794,0.6785,0.6788,0.6787,0.6776,0.6777,0.6772,0.6766,0.6764,0.6758,0.6756,0.6748,0.6746,0.6747,0.674,0.6746,0.6739,0.6737,0.6737,0.6739,0.6759,0.6764,0.6777,0.6751,0.6752,0.6752,0,0.6807,0.6803,0.6806,0.6799,0.6798,0.6799,0.6794,0.6793,0.6787,0.6783,0.678,0.6772,0.6772,0.6764,0.6764,0.6759,0.6758,0.6755,0.6755,0.6754,0.6745,0.6758,0.678,0.6782,0.6754,0.6754,0.6754,0,0.6823,0.6819,0.682,0.6818,0.6809,0.681,0.6806,0.68,0.6798,0.6795,0.6793,0.679,0.6788,0.6785,0.6776,0.6771,0.6778,0.6769,0.6774,0.6775,0.6776,0.6776,0.6798,0.6775,0.6775,0.6775,0.6775,0,0.6837,0.6839,0.6828,0.6828,0.6831,0.6821,0.6824,0.6819,0.6814,0.6814,0.6804,0.6804,0.6793,0.6792,0.6785,0.6787,0.6786,0.6782,0.678,0.6783,0.6784,0.6782,0.6781,0.6776,0.6776,0.6776,0.6776,0,0.6855,0.6847,0.6848,0.684,0.6838,0.684,0.6833,0.6833,0.6828,0.6828,0.6827,0.6818,0.6816,0.6808,0.6803,0.6799,0.6803,0.6799,0.6805,0.6804,0.681,0.681,0.6832,0.6834,0.681,0.681,0.6811,0,0.6864,0.6866,0.6858,0.6857,0.6854,0.6853,0.6852,0.6843,0.6842,0.6836,0.6837,0.6835,0.6832,0.683,0.6823,0.682,0.6816,0.6824,0.6816,0.6819,0.6817,0.6817,0.6817,0.6826,0.6826,0.6826,0.6827,0,0.6881,0.6878,0.6876,0.6873,0.6872,0.6869,0.6866,0.6866,0.6856,0.6855,0.6854,0.6852,0.6848,0.6846,0.6842,0.6838,0.6831,0.683,0.6831,0.6833,0.6837,0.6835,0.681,0.6829,0.6829,0.6829,0.6828,0.6828,0.6895,0.6897,0.6892,0.689,0.6887,0.6885,0.6885,0.688,0.6878,0.6875,0.687,0.6869,0.6864,0.6858,0.6855,0.6854,0.685,0.6852,0.6852,0.6853,0.6854,0.6837,0.6854,0.6854,0.6853,0.6853,0.6853,0,0.6913,0.6909,0.6908,0.6904,0.6903,0.6897,0.6893,0.6893,0.6892,0.6889,0.6887,0.6885,0.6884,0.6877,0.6874,0.6875,0.6872,0.6875,0.6875,0.6874,0.6858,0.6857,0.6878,0.6878,0.6878,0.6878,0.6878,0.6878,0.6921,0.6923,0.6919,0.692,0.6916,0.6916,0.6914,0.6912,0.6909,0.6908,0.6907,0.6902,0.6898,0.6895,0.6893,0.6891,0.6891,0.6895,0.6892,0.6877,0.6875,0.6873,0.6872,0.6895,0.6895,0.6908,0.6908,0.6908]},{"header":{"parameterUnit":"m.s-1","parameterCategory":1,"la1":30.2991,"la2":30.254,"lo1":-89.0895,"lo2":-89.0444,"dy":0.0017,"dx":0.0017,"nx":28,"ny":28,"refTime":"2024-12-03T09:00:00:Z","depth":0,"parameterNumber":3,"parameterNumberName":"V-component_of_WINDS"},"data":[0,0,0,0,0,0,0,0,0,0,0,0,0,0,0,0,0,0,0,0,0,0,0,0,0,0,0,0,0,0,0,0,0,0,0,0,0,0,0,0,0,0,0,0,0,0,0,0,0,0,0,0,0,0,0,0,0,0,-1.4651,-1.4651,0,-1.4692,-1.4692,-1.4693,-1.4684,-1.4684,-1.4683,-1.4682,-1.4723,-1.4724,-1.4726,0,0,0,0,0,0,0,0,0,0,0,0,0,-1.4564,-1.4566,-1.4651,-1.4651,-1.4652,-1.4692,-1.4692,-1.4693,-1.4684,-1.4683,-1.4683,-1.4682,-1.4722,-1.4724,-1.4726,0,0,0,0,0,0,0,0,0,0,0,0,0,-1.4603,-1.4566,-1.4651,-1.4653,-1.4653,-1.4692,-1.4692,-1.4693,-1.4685,-1.4683,-1.4682,-1.4681,-1.4721,-1.4724,-1.4727,-1.4766,0,0,-1.4735,-1.4736,0,0,0,0,0,0,0,0,-1.4601,-1.4606,-1.4652,-1.4653,-1.4653,-1.4682,-1.4677,-1.4717,-1.4685,-1.4673,-1.4682,-1.4681,-1.471,-1.4713,-1.4724,-1.4768,-1.4769,-1.4735,-1.4737,-1.4738,-1.4739,0,0,0,0,0,0,0,-1.4598,-1.4604,-1.4667,-1.4652,-1.4653,-1.4651,-1.4655,-1.4684,-1.4697,-1.4674,-1.4673,-1.4678,-1.471,-1.4721,-1.4724,-1.477,-1.4735,-1.4737,-1.4739,-1.474,-1.4848,-1.4849,0,0,0,0,0,0,-1.4595,-1.4602,-1.4666,-1.4668,-1.4624,-1.4653,-1.4658,-1.4674,-1.4697,-1.4699,-1.4679,-1.4678,-1.4717,-1.4721,-1.4726,-1.4773,-1.4738,-1.474,-1.4742,-1.4846,-1.4848,-1.4849,0,0,0,0,0,0,-1.4593,-1.4601,-1.4664,-1.4635,-1.4643,-1.4656,-1.4674,-1.4675,-1.4686,-1.4701,-1.4703,-1.4688,-1.4716,-1.4722,-1.4756,-1.4774,-1.4741,-1.4744,-1.4845,-1.4847,-1.4848,-1.4867,0,0,0,0,0,0,-1.4591,-1.46,-1.4615,-1.4636,-1.4645,-1.4694,-1.4675,-1.4677,-1.4691,-1.4689,-1.471,-1.4712,-1.4716,-1.4752,-1.4759,-1.4777,-1.4746,-1.4843,-1.4846,-1.4848,-1.4864,-1.4869,-1.4873,0,0,0,0,0,-1.4588,-1.4619,-1.4616,-1.4624,-1.4664,-1.4695,-1.47,-1.4704,-1.4692,-1.4708,-1.4717,-1.4711,-1.4771,-1.4755,-1.4763,-1.4782,-1.4842,-1.4845,-1.4848,-1.4863,-1.4868,-1.4873,0,0,0,0,0,0,-1.46,-1.4621,-1.4619,-1.4658,-1.4675,-1.4694,-1.4713,-1.471,-1.473,-1.4728,-1.4732,-1.4736,-1.4771,-1.478,-1.4762,-1.4821,-1.4805,-1.4809,-1.4814,-1.4819,-1.4823,-1.4819,-1.4748,0,0,0,0,0,-1.4607,-1.4631,-1.4648,-1.4681,-1.469,-1.47,-1.4713,-1.4715,-1.4733,-1.474,-1.4752,-1.4768,-1.4791,-1.4806,-1.4827,-1.4866,-1.487,-1.4883,-1.4887,-1.4891,-1.4894,-1.4914,-1.492,-1.4858,-1.4858,-1.4858,0,0,-1.4622,-1.4637,-1.4652,-1.4684,-1.4697,-1.4721,-1.4706,-1.4732,-1.4749,-1.4743,-1.4776,-1.4785,-1.4804,-1.4841,-1.4857,-1.485,-1.4912,-1.4894,-1.4897,-1.4898,-1.4918,-1.4924,-1.4929,-1.486,-1.486,-1.486,0,0,-1.4662,-1.4676,-1.4704,-1.4718,-1.4739,-1.4745,-1.4752,-1.4771,-1.4778,-1.481,-1.4806,-1.4827,-1.4866,-1.4879,-1.4891,-1.4936,-1.4931,-1.4943,-1.4964,-1.4984,-1.4989,-1.4993,-1.5009,-1.5014,-1.4947,-1.4947,-1.4947,0,-1.4678,-1.4714,-1.4719,-1.4745,-1.4759,-1.4756,-1.4784,-1.4797,-1.4823,-1.4832,-1.4824,-1.4872,-1.4885,-1.4924,-1.4935,-1.4945,-1.4952,-1.494,-1.4988,-1.4993,-1.4997,-1.5011,-1.5017,-1.4948,-1.4948,-1.4948,-1.4948,0,-1.4733,-1.4758,-1.4778,-1.4804,-1.482,-1.4847,-1.4856,-1.4871,-1.4872,-1.4879,-1.4912,-1.4928,-1.4952,-1.4961,-1.4962,-1.5001,-1.4995,-1.4987,-1.4971,-1.5004,-1.5017,-1.5023,-1.495,-1.4949,-1.4949,-1.4949,0,0,-1.478,-1.4809,-1.4816,-1.4827,-1.485,-1.4869,-1.4896,-1.492,-1.4933,-1.4952,-1.4974,-1.5007,-1.5,-1.5013,-1.5015,-1.5033,-1.5067,-1.5023,-1.5024,-1.503,-1.5109,-1.5114,-1.512,-1.5064,-1.5065,-1.5066,-1.5107,0,-1.4821,-1.4869,-1.4874,-1.4916,-1.4939,-1.4936,-1.4959,-1.4975,-1.4983,-1.5003,-1.5012,-1.5035,-1.5024,-1.5032,-1.505,-1.5059,-1.5082,-1.5056,-1.5084,-1.5085,-1.5078,-1.5128,-1.5133,-1.5171,-1.5113,-1.5113,-1.5114,0,-1.4875,-1.4895,-1.494,-1.4959,-1.4969,-1.499,-1.5012,-1.5032,-1.505,-1.5054,-1.5069,-1.5069,-1.5096,-1.5079,-1.5116,-1.5098,-1.511,-1.5116,-1.5118,-1.512,-1.5101,-1.513,-1.5183,-1.5189,-1.5123,-1.5122,-1.5121,0,-1.4904,-1.4943,-1.4974,-1.4984,-1.5008,-1.5022,-1.5032,-1.5049,-1.5063,-1.5083,-1.5092,-1.5114,-1.5126,-1.5143,-1.5149,-1.5136,-1.5185,-1.5169,-1.5189,-1.5189,-1.5198,-1.5197,-1.5253,-1.5208,-1.5208,-1.5207,-1.5207,0,-1.4949,-1.4976,-1.4988,-1.5007,-1.5037,-1.5043,-1.5072,-1.5082,-1.5097,-1.5117,-1.5116,-1.5136,-1.5143,-1.5163,-1.5168,-1.5197,-1.5203,-1.5206,-1.5207,-1.5206,-1.5205,-1.5213,-1.521,-1.5209,-1.5209,-1.5208,-1.5208,0,-1.4986,-1.4995,-1.5029,-1.5048,-1.5054,-1.5075,-1.5091,-1.511,-1.5117,-1.5144,-1.515,-1.5162,-1.5186,-1.5193,-1.5222,-1.5225,-1.5259,-1.5258,-1.5253,-1.5253,-1.5272,-1.5269,-1.5334,-1.5342,-1.5292,-1.5292,-1.5293,0,-1.5014,-1.5034,-1.5056,-1.507,-1.5081,-1.5103,-1.5118,-1.5124,-1.5139,-1.5161,-1.5176,-1.52,-1.5219,-1.5257,-1.5268,-1.529,-1.5289,-1.531,-1.5292,-1.529,-1.5288,-1.5286,-1.5288,-1.5313,-1.5313,-1.5314,-1.5314,0,-1.5061,-1.5064,-1.5085,-1.5108,-1.5125,-1.5143,-1.516,-1.5172,-1.518,-1.5197,-1.5222,-1.5237,-1.5266,-1.5289,-1.5312,-1.5322,-1.5319,-1.532,-1.5325,-1.5324,-1.532,-1.5321,-1.5261,-1.5318,-1.5318,-1.5317,-1.5317,-1.5317,-1.5093,-1.5111,-1.5129,-1.5153,-1.5166,-1.5182,-1.52,-1.5211,-1.5231,-1.5256,-1.5258,-1.5285,-1.5302,-1.5331,-1.5343,-1.5363,-1.5357,-1.5365,-1.5367,-1.5369,-1.537,-1.5317,-1.5367,-1.5367,-1.5367,-1.5367,-1.5367,0,-1.514,-1.5151,-1.5172,-1.5197,-1.5215,-1.5212,-1.5231,-1.5246,-1.5269,-1.5286,-1.5305,-1.5333,-1.5355,-1.5368,-1.539,-1.5404,-1.5403,-1.541,-1.5408,-1.541,-1.5374,-1.5367,-1.541,-1.541,-1.541,-1.541,-1.541,-1.541,-1.5166,-1.5196,-1.5202,-1.5238,-1.525,-1.5276,-1.5287,-1.5301,-1.5314,-1.5346,-1.5365,-1.5373,-1.5388,-1.5411,-1.5432,-1.5435,-1.5443,-1.5449,-1.5452,-1.5418,-1.5413,-1.5409,-1.5402,-1.5451,-1.5451,-1.5486,-1.5486,-1.5487]}]]